User: anonymous   Login
Location: Unspecified
(0.0000°N, 0.0000°E)
Time: 22:16:32
(UTC+00:00)
Language:

LYRA-3 - Orbit

View from above orbital plane
View from above orbital plane
View from above satellite
View from above satellite

Ground track
Ground track

The orbit is defined by the following mean orbital elements,

1 64577U          26145.56288941 +.00000000 +00000-0 +20181-3 0 00008
2 64577  97.7716 251.4864 0021988  58.1246 302.2099 14.74406619    09
Epoch (UTC): 25 May 2026 13:30:33
Eccentricity: 0.0021988
inclination: 97.7716°
perigee height: 632 km
apogee height: 662 km
right ascension of ascending node: 251.4864°
argument of perigee: 58.1246°
revolutions per day: 14.74406619
mean anomaly at epoch: 302.2099°

The dashed part of the orbit path shows where the satellite is in the earth's shadow,  

DLR